Regional Weather Roundup
Issued by NWS

Home | Current Version | Previous Version | Text Only | Print | Product List | Glossary On
Versions: 1 2 3 4 5 6 7 8 9 10 11 12 13 14 15 16 17 18 19 20 21 22 23 24 25 26 27 28 29 30 31 32 33 34 35 36 37 38 39 40 41 42 43 44 45 46 47 48 49 50
000
ASUS44 KLUB 031610
RWRTX
WEST TEXAS WEATHER ROUNDUP
NATIONAL WEATHER SERVICE LUBBOCK TX
1000 AM CST SAT DEC 03 2016

NOTE: "FAIR" INDICATES FEW OR NO CLOUDS BELOW 12,000 FEET WITH NO
SIGNIFICANT WEATHER AND/OR OBSTRUCTIONS TO VISIBILITY.

TXZ004-006>008-010-012-014-016-OKZ002-031700-
TEXAS PANHANDLE/OKLAHOMA PANHANDLE

CITY           SKY/WX    TMP DP  RH WIND       PRES   REMARKS
AMARILLO       FOG       35  35 100 N7        30.13F VSB 1   WCI  29
BORGER         LGT RAIN  35  34  96 N3        30.16S FOG
CANADIAN       CLOUDY    40  40  99 SE6       30.16F FOG
DALHART        CLOUDY    33  32  96 E7        30.13F FOG     WCI  27
DUMAS          CLOUDY    31  31  99 N3        30.15S VSB 1/4
GUYMON         CLOUDY    33  33 100 CALM      30.16S FOG
HEREFORD       FOG       35  35 100 N8        30.14R VSB 1/2 WCI  28
PAMPA          CLOUDY    40  39  97 SE14      30.14F FOG     WCI  32
PERRYTON       CLOUDY    36  35  96 CALM      30.16R
$$

TXZ026-029-035-045-048-031700-
SOUTHERN PANHANDLE/SOUTH PLAINS/ROLLING PLAINS

CITY           SKY/WX    TMP DP  RH WIND       PRES   REMARKS
CHILDRESS      LGT RAIN  43  40  89 E10G18    30.15F
SEMINOLE       CLOUDY    40  40  99 E13       30.11R WCI  33
LUBBOCK        LGT RAIN  40  39  97 E10       30.10F WCI  33
PLAINVIEW      DRIZZLE   37  37  99 E8        30.12R WCI  31
SNYDER         CLOUDY    40  40  97 NE13G18   30.10R WCI  33
$$

TXZ052-054-060>062-072-078-127-140-154-169-031700-
PERMIAN BASIN/CONCHO VALLEY/BIG COUNTRY/EDWARDS PLATEAU

CITY           SKY/WX    TMP DP  RH WIND       PRES   REMARKS
ABILENE        LGT RAIN  45  45 100 NE8       30.10R
BIG SPRING     CLOUDY    42  41  97 NE14      30.11R
BROWNWOOD      CLOUDY    46  46 100 NE5       30.06S
JUNCTION       RAIN      47  46  97 NE8       30.03R FOG
MIDLAND        CLOUDY    43  41  93 NE12      30.06R FOG
ODESSA         CLOUDY    43  40  89 NE14      30.07R FOG
SAN ANGELO     LGT RAIN  46  44  93 NE10      30.05R
SONORA         LGT RAIN  48  46  93 N8        30.05R
SWEETWATER     CLOUDY    43  43 100 NE13      30.10S
WINK           CLOUDY    44  42  93 NE12      30.06S FOG
$$

TXZ055-058-074-075-080-082-031700-
FAR WEST/SOUTHWEST MOUNTAINS/TRANS PECOS

CITY           SKY/WX    TMP DP  RH WIND       PRES   REMARKS
ALPINE         CLOUDY    38  38  99 NE6       30.09R WCI  34
DRYDEN           N/A     50  45  83 N17G28    29.98R
EL PASO        CLOUDY    40  35  83 N18       29.98R WCI  31
FORT STOCKTON  CLOUDY    44  44 100 NE7       30.04R FOG
GUADALUPE PASS CLOUDY    35  35 100 NE43      29.96R WCI  20
MARFA          CLOUDY    39  38  96 NE17      29.99R WCI  30
PECOS          LGT RAIN  41  40  97 N14       30.05F
PRESIDIO       CLOUDY    55  48  76 NE6       29.91S
$$

TXZ014-016-019-021>030-083-031700
TEXAS TECH WEST TEXAS MESONET/TEXAS PANHANDLE/NORTHERN SOUTH PLAINS

CITY           SKY/WX    TMP DP  RH WIND       PRES   REMARKS
ABERNATHY 5ENE   N/A     38  38  98 NE8       30.14S WCI  33
AMARILLO 9NNE    N/A     34  34  99 N7        30.15F WCI  28
AMARILLO 7SSE    N/A     35  34  99 NE5       30.15F WCI  30
AMHERST 1NE      N/A     38  38  99 E9        30.12F WCI  32
BOOTLEG 11WNW    N/A     31  30  97 N6        30.16R WCI  25
CANADIAN 6E      N/A     40  39  99 SE8       30.15F WCI  34
CAPROCK CYN SP   N/A     39  39  99 E9        30.16S WCI  33
CHILDRESS 2NNE   N/A     42  41  97 E12       30.16S
CLARENDON 2WSW   N/A     40  38  93 E9        30.17R WCI  34
CLAUDE 12SW      N/A     37  37  99 E10       30.13F WCI  30
DIMMITT 2NE      N/A     34  34  99 N6        30.16R WCI  29
FLOYDADA 2NNE  LGT RAIN  38  37  99 E9        30.14R WCI  31
FRIONA 2NE       N/A     33  33  99 N6        30.17R WCI  27
GOODLETT 3W      N/A     43  41  92 NE13      30.16S
HART 3N          N/A     38  37  99 E10       30.15R WCI  30
HEREFORD 2NW     N/A     33  33  99 N7        30.17R WCI  27
MCLEAN 1E        N/A     39  39  99 E7        30.15F WCI  34
MEMPHIS 1NE      N/A     42  41  98 E9        30.17F
MULESHOE 2SSW    N/A     35  35  99 N7        30.15S WCI  29
OLTON 6S       LGT RAIN  38  37  95 E8        30.13F WCI  33
PALO DURO SP     N/A     37  36  96 SE2       30.15F
PAMPA 2E         N/A     38  38  99 SE12      30.15S WCI  30
PLAINVIEW 1S   LGT RAIN  38  38  99 E7        30.14R WCI  33
SILVERTON 7ESE   N/A     38  38  99 E8        30.13R WCI  32
TULIA 2ENE       N/A     37  37  99 E10       30.15R WCI  30
TURKEY 2WSW      N/A     40  40  99 E10       30.15S WCI  34
UMBARGER 3NNE    N/A     33  33  99 NE7       30.14F WCI  27
$$

TXZ033>036-039>041-045>048-031700
TEXAS TECH WEST TEXAS MESONET/SOUTH PLAINS

CITY           SKY/WX    TMP DP  RH WIND       PRES   REMARKS
AIKEN 3WSW       N/A     38  38  99 E9        30.15R WCI  32
ANDREWS 2NE      N/A     41  39  93 NE10G16   30.11R
ANTON 6SSW       N/A     39  39  99 NE9       30.12S WCI  33
BROWNFIELD 2S    N/A     39  37  95 NE14      30.12R WCI  30
DENVR CTY 7WNW   N/A     38  38  97 NE12      30.11R WCI  31
GAIL 2ESE        N/A     41  39  95 NE12      30.11S
LAMESA 2SE       N/A     40  39  97 NE14      30.10S WCI  32
LEVELLAND 4S     N/A     39  37  92 NE9       30.12S WCI  33
LUBBOCK 3WNW     N/A     40  39  98 NE8       30.12S WCI  34
MORTON 1ENE      N/A     39  38  97 N7        30.11F WCI  34
ODONNELL 1N      N/A     39  37  92 NE18      30.10R WCI  30
PLAINS 3N        N/A     40  39  98 NE12      30.11S WCI  32
RALLS 1SE      LGT RAIN  38  37  93 E14       30.12S WCI  30
REESE CENTER     N/A     39  37  95 E12       30.14R WCI  31
SEAGRAVES 1SW    N/A     39  38  97 NE10      30.11R WCI  32
SEMINOLE 2NNE    N/A     40  39  97 NE12      30.10R WCI  33
SLATON 2NE       N/A     38  38  99 NE8       30.12R WCI  33
SNYDER 3E        N/A     40  40  99 NE12      30.10R WCI  33
SUNDOWN 8SW      N/A     39  38  96 E12       30.11S WCI  32
TAHOKA 3NNE      N/A     39  38  97 NE14      30.10R WCI  31
WOLFFORTH 6SSW   N/A     40  39  97 NE10      30.12R WCI  33
$$

TXZ031-032-036>038-042>044-031700-
TEXAS TECH WEST TEXAS MESONET/ROLLING PLAINS

CITY           SKY/WX    TMP DP  RH WIND       PRES   REMARKS
ASPERMONT 3NE    N/A     43  42  95 NE10      30.13S
FLUVANNA 3WNW    N/A     40  39  98 NE15      30.10F WCI  31
GRAHAM 5SSW      N/A     39  38  97 NE15G22   30.10S WCI  30
GUTHRIE 10WSW    N/A     42  41  96 NE12      30.13S
HASKELL 1NW    LGT RAIN  43  43  98 NE14      30.12R
JAYTON 1SSE      N/A     42  40  95 NE10      30.12S
KNOX CITY 3NW    N/A     44  41  88 NE12      30.14S
LK A HENRY 1NW   N/A     41  39  91 NE9G15    30.13R
NORTHFIELD 1S    N/A     42  41  99 E10       30.16S
ODELL 4ENE       N/A     44  43  97 NE14      30.17F
PADUCAH 10SW     N/A     42  41  98 E12G17    30.16R
POST 1NE         N/A     40  39  95 NE13      30.11F WCI  33
RRING SPRGS 3N   N/A     39  39  99 NE13G18   30.15R WCI  32
SEYMOUR 3NW      N/A     44  42  92 NE16      30.13F
SPUR 1W          N/A     40  39  96 NE13G18   30.13S WCI  33
WEINERT 2NNE     N/A     44  42  93 NE8       30.13S
WHITE RVR 6NE  LGT RAIN  39  38  95 NE12      30.12S WCI  32
$$

TXZ052-054-060>062-072-078-127-140-154-169-031700-
TEXAS TECH WEST TEXAS MESONET/PERMIAN BASIN/
CONCHO VALLEY/BIG COUNTRY/EDWARDS PLATEAU

CITY           SKY/WX    TMP DP  RH WIND       PRES   REMARKS
COYANOSA 2N      N/A     45  45 100 NE9       30.07F
JUNCTION 1SSW    N/A     46  46  98 N8        30.04F
MERTZON 3NNE     N/A     45  44  97 NE7       30.07S
SAN ANGELO 7NW   N/A     46  43  91 NE3       30.07S
STRLNG CT 4WSW   N/A     44  43  96 NE8       30.08S
ST LAWRNCE 5SW   N/A     44  43  96 NE16      30.04F
SWEETWATR 11SW   N/A     42  42 100 NE14      30.09S
WALL 1E          N/A     45  42  91 NE10      30.09R
$$

TXZ055-058-074-075-080-082-031700-
TEXAS TECH WEST TEXAS MESONET/FAR WEST/SOUTHWEST MOUNTAINS/TRANS PECOS

CITY           SKY/WX    TMP DP  RH WIND       PRES   REMARKS
PRSMN GAP BBNP   N/A     53  47  81 N17       29.96R
GUADLPE MTN NP   N/A     35  34  94 NE12      30.06R WCI  27
$$



USA.gov is the U.S. government's official web portal to all federal, state and local government web resources and services.